User: anonymous   Login
Location: Ferchesar
(52.6477°N, 12.4298°E)
Time: 08:50:11
(UTC+01:00)
Language:

deb Explorer IX - Orbit

View from above orbital plane
View from above orbital plane
View from above satellite
View from above satellite

Ground track
Ground track

The orbit data is extracted from the following two-line orbital elements,

1    85U 61004C   21335.60433686  .00004786  00000-0  10366-2 0  9997
2    85  38.7620 182.4460 0375261  91.1956 273.1799 14.22813565  6822
Epoch (UTC): 01 December 2021 14:30:14
Eccentricity: 0.0375261
inclination: 38.7620°
perigee height: 546 km
apogee height: 1086 km
right ascension of ascending node: 182.4460°
argument of perigee: 91.1956°
revolutions per day: 14.22813565
mean anomaly at epoch: 273.1799°
orbit number at epoch: 682

The dashed part of the orbit path shows where the satellite is in the earth's shadow,  

DLR